Simultaneous Nadir Overpasses (SNOs) Predictions

Prediction of SNOs between NOAA-19 and TERRA Satellite Orbit:

Table of predicted SNOs for the next 14.0 days since TLE Epoch: 4/13/2019
Index Date (NOAA-19) Time (NOAA-19) Lat,Lon (NOAA-19) SZA (NOAA-19 ) Date (TERRA) Time (TERRA) Lat,Lon (TERRA) SZA (TERRA ) Distance(km) Time Diff (sec)
1 04/14/2019 07:36:58 78.29, 86.62 69.68 04/14/2019 07:38:10 78.25, 86.65 69.67 4.41 72
2 04/14/2019 08:27:52 -78.24,-105.84 110.36 04/14/2019 08:27:37 -78.25,-105.68 110.34 3.79 15
3 04/16/2019 14:01:25 78.26, -9.22 68.88 04/16/2019 14:01:22 78.22, -9.25 68.84 3.59 3
4 04/18/2019 19:34:47 -78.27, 87.43 111.89 04/18/2019 19:35:07 -78.27, 87.54 111.87 2.51 20
5 04/18/2019 20:25:46 78.01,-103.75 67.99 04/18/2019 20:24:37 78.09,-105.68 67.89 45.53 69
6 04/21/2019 01:08:20 78.28,-175.91 67.37 04/21/2019 01:08:52 78.28,-175.87 67.39 1.06 32
7 04/21/2019 01:59:14 -78.25, -8.48 112.66 04/21/2019 01:58:20 -78.25, -8.37 112.67 2.58 54
8 04/23/2019 06:41:42 -78.30, -79.34 113.36 04/23/2019 06:42:39 -78.29, -79.28 113.35 2.37 57
9 04/23/2019 07:32:47 78.26, 88.17 66.62 04/23/2019 07:32:05 78.28, 88.31 66.63 3.49 42
10 04/25/2019 12:15:15 78.31, 17.30 65.93 04/25/2019 12:16:25 78.28, 17.26 65.92 3.40 70




NCC Satellite Simultaneous Nadir Overpasses (SNOs) Prediction Service
